STARLINK-35658 (66126 NORAD) Tracking and Keplerian Element Data

This shows tracking and keplerian element data for the satellite.

Feedback or suggestion? Click here.




ElementValue
Catalog66126
NameSTARLINK-35658
Epoch Orbit592
Epoch Day354.25003472
Epoch Year2025
RAAN51.7337
Inclination53.1598
Eccentricity0.0001191
Argument of Perigee111.8308
Mean Anonmoly259.6692
Mean Motion15.39621163
Decay Rate6.451E-05
L11 66126U 25237N 25354.25003472 .00006451 00000+0 17111-3 0 9991
L22 66126 53.1598 51.7337 0001191 111.8308 259.6692 15.39621163 5926



Live tracking and technical data element details for STARLINK-35658 (NORAD 66126). STARLINK-35658 can be tracked NOW for your location showing map with azimuth and elevation plus other details from your city location.







IsCatalogInMostPopularTable: catalog: 66126, numindb: 9
Update: records affected: 1



GetName: 66126 STARLINK-35658

Hit Count: updated at: Sat, 11 Apr 2026 21:21:51 GMT